[[{"header":{"parameterUnit":"m.s-1","parameterCategory":1,"la1":30.2991,"la2":30.254,"lo1":-89.0895,"lo2":-89.0444,"dy":0.0017,"dx":0.0017,"nx":28,"ny":28,"refTime":"2025-03-16T21:00:00:Z","depth":0,"parameterNumber":2,"parameterNumberName":"U-component_of_WINDS"},"data":[0,0,0,0,0,0,0,0,0,0,0,0,0,0,0,0,0,0,0,0,0,0,0,0,0,0,0,0,0,0,0,0,0,0,0,0,0,0,0,0,0,0,0,0,0,0,0,0,0,0,0,0,0,0,0,0,0,0,-3.2613,-3.2614,0,-3.2702,-3.2703,-3.2705,-3.2703,-3.2702,-3.2701,-3.27,-3.2791,-3.2795,-3.2798,0,0,0,0,0,0,0,0,0,0,0,0,0,-3.2445,-3.2448,-3.2613,-3.2614,-3.2616,-3.2702,-3.2704,-3.2705,-3.2703,-3.2702,-3.27,-3.2699,-3.279,-3.2795,-3.2799,0,0,0,0,0,0,0,0,0,0,0,0,0,-3.2524,-3.2449,-3.2613,-3.2625,-3.2627,-3.2702,-3.2704,-3.2705,-3.2704,-3.2702,-3.27,-3.2698,-3.2789,-3.2794,-3.2799,-3.2868,0,0,-3.2816,-3.2818,0,0,0,0,0,0,0,0,-3.252,-3.253,-3.2622,-3.2625,-3.2627,-3.269,-3.2678,-3.276,-3.2704,-3.2675,-3.27,-3.2697,-3.2759,-3.2767,-3.2787,-3.2872,-3.2876,-3.2816,-3.2819,-3.2822,-3.2823,0,0,0,0,0,0,0,-3.2514,-3.2527,-3.2649,-3.2624,-3.2627,-3.2627,-3.2637,-3.2693,-3.2726,-3.2677,-3.2677,-3.2688,-3.276,-3.2782,-3.279,-3.2878,-3.2816,-3.2821,-3.2824,-3.2826,-3.3026,-3.3028,0,0,0,0,0,0,-3.2506,-3.2522,-3.2646,-3.2651,-3.2568,-3.2632,-3.2642,-3.2671,-3.2725,-3.2732,-3.2689,-3.2687,-3.2774,-3.2783,-3.2793,-3.2877,-3.2822,-3.2827,-3.283,-3.3024,-3.3027,-3.3029,0,0,0,0,0,0,-3.2502,-3.2517,-3.2642,-3.2587,-3.2603,-3.2636,-3.2669,-3.2674,-3.2696,-3.2734,-3.274,-3.2706,-3.2773,-3.2785,-3.285,-3.2881,-3.2829,-3.2834,-3.3022,-3.3025,-3.3028,-3.3047,0,0,0,0,0,0,-3.2497,-3.2516,-3.2541,-3.2587,-3.2606,-3.2697,-3.2671,-3.2677,-3.2705,-3.2704,-3.2751,-3.2758,-3.2773,-3.2842,-3.2855,-3.2887,-3.2838,-3.3019,-3.3023,-3.3027,-3.3044,-3.305,-3.3056,0,0,0,0,0,-3.2491,-3.2543,-3.2542,-3.2557,-3.2638,-3.2698,-3.2709,-3.2725,-3.2708,-3.2734,-3.276,-3.2756,-3.2876,-3.2849,-3.2863,-3.2897,-3.3017,-3.3022,-3.3026,-3.3041,-3.3049,-3.3056,0,0,0,0,0,0,-3.2498,-3.2549,-3.2549,-3.2617,-3.2653,-3.2698,-3.2731,-3.2733,-3.2775,-3.2772,-3.279,-3.2801,-3.2866,-3.2889,-3.2857,-3.2968,-3.2944,-3.2952,-3.295,-3.2958,-3.2964,-3.2957,-3.2843,0,0,0,0,0,-3.2508,-3.2552,-3.2594,-3.265,-3.2668,-3.2697,-3.2724,-3.2733,-3.2772,-3.2788,-3.2817,-3.2855,-3.2902,-3.2932,-3.2976,-3.3048,-3.3059,-3.3079,-3.3085,-3.309,-3.3096,-3.3137,-3.3147,-3.3044,-3.3044,-3.3044,0,0,-3.2528,-3.2561,-3.2587,-3.2652,-3.2682,-3.2728,-3.271,-3.2759,-3.2794,-3.2795,-3.2857,-3.2881,-3.2926,-3.2994,-3.3026,-3.3015,-3.3128,-3.3096,-3.31,-3.3103,-3.3143,-3.3153,-3.3161,-3.3048,-3.3047,-3.3047,0,0,-3.2587,-3.2616,-3.2666,-3.2697,-3.2742,-3.2762,-3.2774,-3.282,-3.2835,-3.2899,-3.2901,-3.2944,-3.3023,-3.3055,-3.3081,-3.3157,-3.3156,-3.3172,-3.3203,-3.3243,-3.3251,-3.3258,-3.3285,-3.3294,-3.3178,-3.3178,-3.3178,0,-3.2605,-3.2674,-3.2692,-3.2742,-3.2771,-3.2776,-3.2827,-3.2856,-3.2914,-3.2934,-3.2922,-3.3023,-3.3053,-3.313,-3.3149,-3.317,-3.3185,-3.3164,-3.3248,-3.3255,-3.3262,-3.3288,-3.3298,-3.3179,-3.3179,-3.3179,-3.3179,0,-3.2695,-3.2743,-3.2778,-3.2834,-3.2868,-3.2918,-3.2945,-3.2977,-3.2985,-3.3006,-3.3072,-3.3109,-3.3162,-3.3181,-3.3189,-3.326,-3.3252,-3.3244,-3.322,-3.3273,-3.3298,-3.3308,-3.3182,-3.3181,-3.3181,-3.318,0,0,-3.2757,-3.2825,-3.2838,-3.2864,-3.2916,-3.2954,-3.3006,-3.3058,-3.3085,-3.3127,-3.3171,-3.324,-3.3233,-3.3264,-3.3276,-3.3311,-3.3369,-3.3299,-3.33,-3.331,-3.345,-3.3455,-3.3466,-3.337,-3.3372,-3.3374,-3.3446,0,-3.2821,-3.2912,-3.2931,-3.3011,-3.3056,-3.3063,-3.3109,-3.3147,-3.3169,-3.3212,-3.3237,-3.3285,-3.3273,-3.3292,-3.3327,-3.3354,-3.3397,-3.335,-3.3411,-3.3413,-3.3398,-3.3479,-3.3483,-3.355,-3.3456,-3.3458,-3.3459,0,-3.2907,-3.295,-3.3034,-3.3082,-3.3102,-3.3142,-3.3193,-3.3234,-3.3278,-3.3292,-3.3327,-3.3337,-3.3393,-3.3369,-3.3446,-3.3413,-3.3441,-3.3459,-3.3462,-3.3466,-3.3438,-3.3485,-3.3572,-3.3581,-3.3474,-3.3473,-3.3472,0,-3.2943,-3.3023,-3.3084,-3.3106,-3.3164,-3.3193,-3.3218,-3.3261,-3.3292,-3.3337,-3.3357,-3.3408,-3.3436,-3.3476,-3.35,-3.348,-3.3576,-3.3554,-3.359,-3.3589,-3.3607,-3.3605,-3.3698,-3.3627,-3.3627,-3.3627,-3.3627,0,-3.3011,-3.3062,-3.3101,-3.3138,-3.3196,-3.3219,-3.3276,-3.3302,-3.334,-3.3384,-3.3394,-3.3435,-3.3464,-3.351,-3.3529,-3.3591,-3.3604,-3.3617,-3.3621,-3.3615,-3.3613,-3.3631,-3.3627,-3.363,-3.3629,-3.3629,-3.3628,0,-3.306,-3.3088,-3.3155,-3.3205,-3.322,-3.326,-3.3304,-3.3341,-3.3365,-3.342,-3.3434,-3.3472,-3.3526,-3.3554,-3.3622,-3.3635,-3.3705,-3.3707,-3.3689,-3.3691,-3.3725,-3.3721,-3.3831,-3.3847,-3.3767,-3.3767,-3.3768,0,-3.3101,-3.314,-3.3195,-3.3225,-3.3252,-3.3299,-3.3331,-3.3357,-3.339,-3.3445,-3.3476,-3.3531,-3.3576,-3.3663,-3.3697,-3.3749,-3.3752,-3.3788,-3.376,-3.3753,-3.3752,-3.3749,-3.3753,-3.3791,-3.3792,-3.3793,-3.3793,0,-3.317,-3.3183,-3.3228,-3.328,-3.3318,-3.3359,-3.3401,-3.3425,-3.3458,-3.3495,-3.355,-3.3585,-3.3656,-3.371,-3.3766,-3.3794,-3.3799,-3.3802,-3.3813,-3.3806,-3.3794,-3.3801,-3.3701,-3.3799,-3.3798,-3.3798,-3.3798,-3.3797,-3.3215,-3.3251,-3.3296,-3.3347,-3.3382,-3.3421,-3.3458,-3.3488,-3.3535,-3.3593,-3.3606,-3.3665,-3.3712,-3.3787,-3.3817,-3.3864,-3.3857,-3.3873,-3.3877,-3.388,-3.3881,-3.3789,-3.3875,-3.3875,-3.3875,-3.3875,-3.3874,0,-3.3284,-3.3315,-3.3362,-3.3419,-3.346,-3.3463,-3.351,-3.3544,-3.3595,-3.3638,-3.3683,-3.3748,-3.3802,-3.3842,-3.3897,-3.3928,-3.3932,-3.3941,-3.3938,-3.3945,-3.3885,-3.3869,-3.3937,-3.3937,-3.3937,-3.3937,-3.3937,-3.3937,-3.3325,-3.3386,-3.3405,-3.3484,-3.3514,-3.3571,-3.3598,-3.3635,-3.3669,-3.3741,-3.3786,-3.3812,-3.3854,-3.3913,-3.3963,-3.3974,-3.3993,-3.4002,-3.4013,-3.3956,-3.3949,-3.3942,-3.3928,-3.4007,-3.4007,-3.4069,-3.407,-3.407]},{"header":{"parameterUnit":"m.s-1","parameterCategory":1,"la1":30.2991,"la2":30.254,"lo1":-89.0895,"lo2":-89.0444,"dy":0.0017,"dx":0.0017,"nx":28,"ny":28,"refTime":"2025-03-16T21:00:00:Z","depth":0,"parameterNumber":3,"parameterNumberName":"V-component_of_WINDS"},"data":[0,0,0,0,0,0,0,0,0,0,0,0,0,0,0,0,0,0,0,0,0,0,0,0,0,0,0,0,0,0,0,0,0,0,0,0,0,0,0,0,0,0,0,0,0,0,0,0,0,0,0,0,0,0,0,0,0,0,4.757,4.757,0,4.7576,4.7576,4.7576,4.7589,4.7589,4.759,4.759,4.7591,4.7591,4.7591,0,0,0,0,0,0,0,0,0,0,0,0,0,4.7566,4.7566,4.757,4.757,4.757,4.7576,4.7576,4.7576,4.7589,4.7589,4.759,4.759,4.7591,4.7591,4.7591,0,0,0,0,0,0,0,0,0,0,0,0,0,4.7569,4.7566,4.757,4.7577,4.7578,4.7576,4.7576,4.7576,4.7589,4.7589,4.759,4.759,4.7591,4.7591,4.7591,4.758,0,0,4.759,4.7589,0,0,0,0,0,0,0,0,4.7569,4.7569,4.7576,4.7577,4.7578,4.7582,4.7575,4.7577,4.7589,4.7585,4.759,4.759,4.7587,4.7587,4.7588,4.758,4.758,4.759,4.7589,4.7589,4.7589,0,0,0,0,0,0,0,4.7569,4.7569,4.7572,4.7576,4.7577,4.7579,4.758,4.7576,4.7583,4.7585,4.7586,4.7587,4.7588,4.7588,4.7588,4.758,4.759,4.7589,4.7589,4.7589,4.7566,4.7566,0,0,0,0,0,0,4.7568,4.7569,4.7572,4.7572,4.7574,4.7579,4.758,4.758,4.7584,4.7585,4.7586,4.7587,4.7588,4.7588,4.7588,4.7577,4.7589,4.7589,4.7589,4.7566,4.7566,4.7566,0,0,0,0,0,0,4.7568,4.7568,4.7572,4.7571,4.7572,4.7579,4.7579,4.758,4.758,4.7585,4.7586,4.7585,4.7589,4.7588,4.7583,4.7577,4.7589,4.7588,4.7567,4.7566,4.7566,4.7554,0,0,0,0,0,0,4.7568,4.7568,4.7565,4.7571,4.7572,4.7567,4.7578,4.758,4.758,4.7581,4.7584,4.7584,4.7589,4.7583,4.7582,4.7577,4.7588,4.7567,4.7567,4.7566,4.7555,4.7553,4.7551,0,0,0,0,0,4.7568,4.756,4.7565,4.7565,4.7568,4.7567,4.7567,4.7574,4.758,4.7576,4.7579,4.7584,4.7578,4.7582,4.7582,4.7576,4.7568,4.7567,4.7566,4.7556,4.7553,4.7551,0,0,0,0,0,0,4.7551,4.7561,4.7566,4.756,4.7563,4.7569,4.7565,4.7571,4.7571,4.7572,4.7578,4.7579,4.7572,4.7573,4.7578,4.7567,4.7574,4.7573,4.7566,4.7564,4.7562,4.7562,4.7588,0,0,0,0,0,4.7547,4.7547,4.7555,4.7549,4.755,4.7557,4.7557,4.7562,4.7564,4.7565,4.7568,4.7569,4.7567,4.7566,4.7564,4.7555,4.7556,4.7551,4.7549,4.7548,4.7547,4.7543,4.7541,4.7563,4.7563,4.7563,0,0,4.7537,4.7543,4.7542,4.7545,4.7548,4.7547,4.7558,4.7556,4.7555,4.7564,4.756,4.7562,4.7563,4.7557,4.7554,4.7557,4.7541,4.7547,4.7546,4.7545,4.7542,4.754,4.7538,4.7562,4.7562,4.7562,0,0,4.752,4.7525,4.7521,4.7524,4.7529,4.7534,4.7533,4.7539,4.7542,4.7538,4.7546,4.7544,4.754,4.7542,4.7542,4.7528,4.7533,4.7527,4.7518,4.7514,4.7512,4.7511,4.7506,4.7505,4.7526,4.7526,4.7526,0,4.7508,4.7508,4.7517,4.7516,4.7517,4.7528,4.7524,4.7526,4.7529,4.753,4.7534,4.7532,4.7533,4.7528,4.7525,4.7524,4.7523,4.7526,4.7512,4.7511,4.7509,4.7505,4.7503,4.7525,4.7525,4.7525,4.7525,0,4.7493,4.7492,4.7489,4.7494,4.7495,4.7492,4.75,4.75,4.7506,4.751,4.7507,4.7509,4.7509,4.7508,4.7513,4.7504,4.7506,4.7511,4.7518,4.7507,4.7503,4.7501,4.7524,4.7524,4.7524,4.7525,0,0,4.7463,4.7476,4.7475,4.7478,4.7485,4.7485,4.7482,4.7484,4.7484,4.7486,4.7484,4.7483,4.7488,4.7489,4.7493,4.749,4.748,4.7496,4.7496,4.7493,4.7471,4.7467,4.7465,4.7484,4.7483,4.7483,4.7471,0,4.7448,4.7446,4.7456,4.7451,4.7451,4.7463,4.746,4.7464,4.7469,4.7469,4.7473,4.7472,4.748,4.748,4.7478,4.7482,4.7475,4.7483,4.7481,4.7481,4.748,4.7463,4.7458,4.7446,4.7469,4.7469,4.7469,0,4.7429,4.7433,4.7429,4.7438,4.7439,4.7437,4.744,4.7441,4.7445,4.7449,4.745,4.7457,4.7455,4.7462,4.7459,4.7464,4.7464,4.7466,4.7466,4.7465,4.7474,4.7462,4.7442,4.7441,4.7466,4.7466,4.7467,0,4.7409,4.7413,4.7412,4.7414,4.7424,4.7423,4.7427,4.7432,4.7434,4.7436,4.7437,4.7439,4.744,4.744,4.7447,4.7452,4.7443,4.7451,4.7446,4.7446,4.7443,4.7443,4.7423,4.7443,4.7443,4.7443,4.7443,0,4.739,4.7387,4.7403,4.7402,4.7399,4.741,4.7407,4.7412,4.7417,4.7416,4.7426,4.7425,4.7434,4.7434,4.7439,4.7436,4.7436,4.7439,4.744,4.7438,4.7438,4.7438,4.7438,4.7442,4.7443,4.7443,4.7443,0,4.7367,4.7377,4.7377,4.7388,4.739,4.7388,4.7397,4.7396,4.7402,4.7402,4.7402,4.7411,4.7412,4.7419,4.7421,4.7424,4.7419,4.7422,4.7418,4.7419,4.7414,4.7414,4.7393,4.7391,4.7412,4.7412,4.7411,0,4.7355,4.7353,4.7365,4.7366,4.7371,4.7372,4.7375,4.7385,4.7387,4.7394,4.7392,4.7394,4.7396,4.7397,4.7403,4.7404,4.7407,4.74,4.7407,4.7406,4.7408,4.7408,4.7408,4.7398,4.7398,4.7397,4.7397,0,4.7332,4.7337,4.7341,4.7347,4.735,4.7354,4.7359,4.7359,4.7371,4.7372,4.7375,4.7377,4.738,4.7382,4.7385,4.7388,4.7394,4.7395,4.7394,4.7392,4.739,4.7391,4.7414,4.7395,4.7396,4.7396,4.7396,4.7396,4.7313,4.7313,4.7322,4.7326,4.7332,4.7337,4.7337,4.7344,4.7347,4.7352,4.7358,4.7359,4.7365,4.737,4.7373,4.7374,4.7377,4.7376,4.7375,4.7375,4.7374,4.739,4.7374,4.7374,4.7374,4.7374,4.7374,0,4.7291,4.7298,4.7302,4.731,4.7313,4.7322,4.7328,4.733,4.7332,4.7337,4.734,4.7343,4.7345,4.7353,4.7356,4.7355,4.7358,4.7355,4.7355,4.7356,4.737,4.7371,4.7353,4.7353,4.7353,4.7353,4.7353,4.7353,4.728,4.7281,4.7288,4.7291,4.7298,4.7301,4.7304,4.7309,4.7314,4.7317,4.732,4.7326,4.7332,4.7336,4.7338,4.734,4.7341,4.7337,4.734,4.7353,4.7355,4.7357,4.7358,4.7337,4.7337,4.7326,4.7326,4.7326]}]]